[[{"header":{"parameterUnit":"m.s-1","parameterCategory":1,"la1":30.2991,"la2":30.254,"lo1":-89.0895,"lo2":-89.0444,"dy":0.0017,"dx":0.0017,"nx":28,"ny":28,"refTime":"2023-09-17T09:00:00:Z","depth":0,"parameterNumber":2,"parameterNumberName":"U-component_of_WINDS"},"data":[0,0,0,0,0,0,0,0,0,0,0,0,0,0,0,0,0,0,0,0,0,0,0,0,0,0,0,0,0,0,0,0,0,0,0,0,0,0,0,0,0,0,0,0,0,0,0,0,0,0,0,0,0,0,0,0,0,0,-4.1184,-4.1184,0,-4.1207,-4.1207,-4.1207,-4.1035,-4.103,-4.1025,-4.1021,-4.1047,-4.1052,-4.1058,0,0,0,0,0,0,0,0,0,0,0,0,0,-4.0992,-4.0996,-4.1184,-4.1184,-4.1184,-4.1207,-4.1207,-4.1207,-4.1036,-4.103,-4.1024,-4.1019,-4.1046,-4.1052,-4.1058,0,0,0,0,0,0,0,0,0,0,0,0,0,-4.1051,-4.0998,-4.1183,-4.1101,-4.1094,-4.1207,-4.1207,-4.1207,-4.1037,-4.103,-4.1022,-4.1016,-4.1044,-4.1051,-4.1059,-4.1252,0,0,-4.1083,-4.1086,0,0,0,0,0,0,0,0,-4.1048,-4.1059,-4.1113,-4.1107,-4.1099,-4.111,-4.1149,-4.1223,-4.1039,-4.1059,-4.1021,-4.1012,-4.1074,-4.1079,-4.11,-4.1254,-4.1255,-4.1084,-4.1088,-4.1092,-4.1094,0,0,0,0,0,0,0,-4.1044,-4.1057,-4.1193,-4.1114,-4.1106,-4.1063,-4.1064,-4.1162,-4.1107,-4.1057,-4.1044,-4.1049,-4.1069,-4.1093,-4.1099,-4.1255,-4.1083,-4.109,-4.1095,-4.1098,-4.1566,-4.1573,0,0,0,0,0,0,-4.1051,-4.1054,-4.1192,-4.1193,-4.1055,-4.1073,-4.1073,-4.1114,-4.1106,-4.1097,-4.1055,-4.1041,-4.1083,-4.109,-4.1099,-4.1323,-4.1092,-4.1099,-4.1103,-4.1558,-4.1568,-4.1576,0,0,0,0,0,0,-4.1048,-4.1065,-4.1191,-4.112,-4.1133,-4.1084,-4.1131,-4.1119,-4.1141,-4.1104,-4.1094,-4.1089,-4.1077,-4.1088,-4.1215,-4.1321,-4.1102,-4.111,-4.1549,-4.1561,-4.1572,-4.1773,0,0,0,0,0,0,-4.1043,-4.1065,-4.1138,-4.1123,-4.1138,-4.1306,-4.1138,-4.1124,-4.1155,-4.1137,-4.1133,-4.1126,-4.1072,-4.1204,-4.1222,-4.1328,-4.1116,-4.1539,-4.1554,-4.1568,-4.1757,-4.179,-4.1819,0,0,0,0,0,-4.1037,-4.1195,-4.1142,-4.116,-4.1228,-4.1313,-4.1321,-4.1255,-4.1164,-4.1237,-4.1213,-4.1126,-4.1307,-4.1218,-4.1238,-4.1347,-4.1532,-4.155,-4.1567,-4.1743,-4.1784,-4.1818,0,0,0,0,0,0,-4.1224,-4.1191,-4.1133,-4.1291,-4.1306,-4.1284,-4.1373,-4.1301,-4.1343,-4.1324,-4.1242,-4.1243,-4.1383,-4.1378,-4.128,-4.1533,-4.1404,-4.1426,-4.1531,-4.1569,-4.16,-4.1597,-4.1122,0,0,0,0,0,-4.1284,-4.1355,-4.1323,-4.1466,-4.1476,-4.1424,-4.1459,-4.1407,-4.1419,-4.1425,-4.141,-4.1426,-4.1486,-4.1527,-4.1581,-4.1755,-4.1751,-4.184,-4.1871,-4.1897,-4.1917,-4.2006,-4.2045,-4.1633,-4.1633,-4.1633,0,0,-4.1408,-4.1399,-4.1449,-4.1503,-4.1508,-4.1584,-4.143,-4.1518,-4.1573,-4.1438,-4.1555,-4.1546,-4.1558,-4.1709,-4.1775,-4.1709,-4.203,-4.1919,-4.194,-4.1946,-4.2028,-4.2067,-4.2102,-4.1645,-4.1643,-4.1641,0,0,-4.1672,-4.1674,-4.1791,-4.1799,-4.1809,-4.1773,-4.1801,-4.179,-4.1777,-4.1894,-4.1794,-4.1858,-4.1964,-4.1976,-4.1997,-4.2264,-4.2185,-4.2284,-4.2446,-4.2534,-4.2566,-4.2595,-4.2688,-4.2723,-4.2304,-4.2305,-4.2305,0,-4.1826,-4.1935,-4.1861,-4.1954,-4.198,-4.186,-4.1978,-4.199,-4.2018,-4.2038,-4.1964,-4.2093,-4.2093,-4.2243,-4.2308,-4.233,-4.2359,-4.2283,-4.2568,-4.2595,-4.2621,-4.2709,-4.2744,-4.2316,-4.2315,-4.2314,-4.2313,0,-4.2122,-4.2199,-4.2293,-4.232,-4.2357,-4.2463,-4.2404,-4.2451,-4.2395,-4.2367,-4.2487,-4.2482,-4.2532,-4.2564,-4.2512,-4.2707,-4.2666,-4.2582,-4.245,-4.2673,-4.2754,-4.2787,-4.2333,-4.2329,-4.2325,-4.2323,0,0,-4.2505,-4.2489,-4.2524,-4.2534,-4.2535,-4.2594,-4.2694,-4.274,-4.278,-4.2803,-4.2884,-4.2975,-4.2896,-4.2919,-4.2868,-4.2946,-4.3155,-4.2851,-4.285,-4.2906,-4.3367,-4.3429,-4.347,-4.3103,-4.3109,-4.3114,-4.3365,0,-4.2761,-4.2929,-4.2865,-4.3037,-4.3107,-4.2994,-4.308,-4.309,-4.3067,-4.3122,-4.3096,-4.3162,-4.3054,-4.3066,-4.3139,-4.3114,-4.3246,-4.3095,-4.3176,-4.318,-4.3175,-4.3512,-4.3579,-4.3816,-4.3397,-4.3402,-4.3406,0,-4.3082,-4.3116,-4.3295,-4.3282,-4.3309,-4.3388,-4.3424,-4.3479,-4.3488,-4.3465,-4.349,-4.3421,-4.3517,-4.3387,-4.3518,-4.3417,-4.3446,-4.3439,-4.3447,-4.345,-4.3305,-4.3523,-4.3891,-4.3926,-4.3456,-4.3452,-4.3448,0,-4.3341,-4.3432,-4.3549,-4.3562,-4.355,-4.3608,-4.3606,-4.3607,-4.3639,-4.3671,-4.369,-4.3735,-4.3759,-4.3795,-4.3739,-4.3649,-4.3877,-4.3743,-4.386,-4.3862,-4.3912,-4.3909,-4.4287,-4.3935,-4.3934,-4.3934,-4.3933,0,-4.3632,-4.3746,-4.3665,-4.3738,-4.3861,-4.3786,-4.3911,-4.3896,-4.3899,-4.3966,-4.3872,-4.3938,-4.3861,-4.3919,-4.3877,-4.399,-4.4003,-4.3986,-4.3973,-4.3994,-4.3996,-4.401,-4.3992,-4.3943,-4.3941,-4.3939,-4.3938,0,-4.3941,-4.3892,-4.4013,-4.3991,-4.3988,-4.408,-4.4061,-4.4128,-4.4097,-4.4184,-4.42,-4.4152,-4.4216,-4.4164,-4.4227,-4.4197,-4.4347,-4.4312,-4.4344,-4.4334,-4.4453,-4.4442,-4.4852,-4.4901,-4.452,-4.4524,-4.4527,0,-4.4129,-4.4214,-4.42,-4.4238,-4.4241,-4.4304,-4.4335,-4.4265,-4.4301,-4.4317,-4.4381,-4.4436,-4.4476,-4.4583,-4.4555,-4.4602,-4.4565,-4.4706,-4.4572,-4.4589,-4.4564,-4.4559,-4.4566,-4.4733,-4.4737,-4.4741,-4.4744,0,-4.4468,-4.4438,-4.4486,-4.4526,-4.4565,-4.4593,-4.4614,-4.4651,-4.4578,-4.4624,-4.4687,-4.4718,-4.4781,-4.4837,-4.4874,-4.4871,-4.4796,-4.4787,-4.4816,-4.4836,-4.485,-4.4842,-4.4416,-4.4777,-4.4774,-4.4771,-4.477,-4.4768,-4.472,-4.4788,-4.4789,-4.4845,-4.4853,-4.4874,-4.4934,-4.491,-4.4961,-4.5006,-4.4962,-4.5038,-4.5043,-4.5084,-4.5091,-4.515,-4.5091,-4.5134,-4.5145,-4.5156,-4.5172,-4.4843,-4.5157,-4.5156,-4.5155,-4.5154,-4.5153,0,-4.5051,-4.5045,-4.5098,-4.5128,-4.5172,-4.5097,-4.5115,-4.5157,-4.5224,-4.5235,-4.5276,-4.5348,-4.5401,-4.5377,-4.5423,-4.5474,-4.5441,-4.5489,-4.5483,-4.5483,-4.5223,-4.5191,-4.5515,-4.5515,-4.5515,-4.5514,-4.5514,-4.5514,-4.5228,-4.5339,-4.531,-4.5424,-4.5418,-4.549,-4.5507,-4.5526,-4.5533,-4.5617,-4.566,-4.5643,-4.564,-4.5685,-4.573,-4.5721,-4.5742,-4.5802,-4.5781,-4.5538,-4.5502,-4.5468,-4.5438,-4.5808,-4.5808,-4.6036,-4.6038,-4.604]},{"header":{"parameterUnit":"m.s-1","parameterCategory":1,"la1":30.2991,"la2":30.254,"lo1":-89.0895,"lo2":-89.0444,"dy":0.0017,"dx":0.0017,"nx":28,"ny":28,"refTime":"2023-09-17T09:00:00:Z","depth":0,"parameterNumber":3,"parameterNumberName":"V-component_of_WINDS"},"data":[0,0,0,0,0,0,0,0,0,0,0,0,0,0,0,0,0,0,0,0,0,0,0,0,0,0,0,0,0,0,0,0,0,0,0,0,0,0,0,0,0,0,0,0,0,0,0,0,0,0,0,0,0,0,0,0,0,0,-1.6326,-1.6327,0,-1.6401,-1.6401,-1.6402,-1.6452,-1.6453,-1.6453,-1.6453,-1.6527,-1.6528,-1.653,0,0,0,0,0,0,0,0,0,0,0,0,0,-1.6222,-1.6223,-1.6326,-1.6327,-1.6328,-1.64,-1.6401,-1.6402,-1.6452,-1.6453,-1.6453,-1.6453,-1.6526,-1.6528,-1.653,0,0,0,0,0,0,0,0,0,0,0,0,0,-1.6278,-1.6224,-1.6325,-1.6361,-1.6365,-1.64,-1.6401,-1.6403,-1.6452,-1.6453,-1.6453,-1.6454,-1.6525,-1.6528,-1.653,-1.6535,0,0,-1.6538,-1.6539,0,0,0,0,0,0,0,0,-1.6275,-1.6282,-1.6355,-1.6359,-1.6363,-1.6418,-1.6392,-1.6447,-1.6452,-1.6419,-1.6453,-1.6454,-1.649,-1.6495,-1.6508,-1.6538,-1.6541,-1.6538,-1.6539,-1.654,-1.6541,0,0,0,0,0,0,0,-1.6271,-1.6279,-1.6355,-1.6356,-1.6361,-1.6372,-1.6381,-1.6402,-1.645,-1.6422,-1.6426,-1.6434,-1.6492,-1.6505,-1.651,-1.6543,-1.6538,-1.654,-1.6542,-1.6543,-1.6578,-1.6578,0,0,0,0,0,0,-1.6262,-1.6276,-1.6353,-1.6357,-1.632,-1.6374,-1.6383,-1.64,-1.645,-1.6459,-1.6433,-1.6436,-1.6501,-1.6507,-1.6513,-1.652,-1.654,-1.6543,-1.6544,-1.6579,-1.6578,-1.6578,0,0,0,0,0,0,-1.626,-1.6269,-1.635,-1.6318,-1.6329,-1.6375,-1.6393,-1.6401,-1.6414,-1.6459,-1.6468,-1.6439,-1.6502,-1.6509,-1.6529,-1.6524,-1.6544,-1.6546,-1.6579,-1.6579,-1.6578,-1.6536,0,0,0,0,0,0,-1.6257,-1.6267,-1.6271,-1.6317,-1.633,-1.6366,-1.6392,-1.6402,-1.6419,-1.6423,-1.6466,-1.6474,-1.6503,-1.6525,-1.6531,-1.6527,-1.6548,-1.658,-1.6579,-1.6578,-1.6538,-1.6534,-1.653,0,0,0,0,0,-1.6253,-1.6256,-1.6271,-1.628,-1.6336,-1.6365,-1.6373,-1.6407,-1.6418,-1.6421,-1.645,-1.6472,-1.6523,-1.6526,-1.6534,-1.6531,-1.6581,-1.6579,-1.6578,-1.654,-1.6535,-1.653,0,0,0,0,0,0,-1.6206,-1.6262,-1.628,-1.6298,-1.6327,-1.6374,-1.6379,-1.64,-1.6426,-1.6428,-1.6468,-1.6478,-1.6493,-1.6514,-1.6516,-1.6537,-1.6555,-1.6555,-1.6522,-1.6518,-1.6514,-1.6508,-1.655,0,0,0,0,0,-1.6198,-1.6219,-1.6266,-1.6278,-1.6291,-1.6332,-1.6347,-1.637,-1.6401,-1.6413,-1.6443,-1.6471,-1.6493,-1.6507,-1.653,-1.6541,-1.655,-1.6543,-1.6539,-1.6535,-1.6535,-1.6541,-1.6537,-1.6574,-1.6574,-1.6574,0,0,-1.6182,-1.6215,-1.6226,-1.6269,-1.6294,-1.6313,-1.6342,-1.6361,-1.6375,-1.6416,-1.6436,-1.6459,-1.6492,-1.6507,-1.6515,-1.6525,-1.6527,-1.6534,-1.6531,-1.6532,-1.6539,-1.6535,-1.6532,-1.6573,-1.6573,-1.6573,0,0,-1.6161,-1.6189,-1.6201,-1.6225,-1.6263,-1.629,-1.6293,-1.6336,-1.6353,-1.6374,-1.6404,-1.6421,-1.6459,-1.6481,-1.6497,-1.6484,-1.6505,-1.649,-1.6469,-1.6474,-1.6472,-1.6469,-1.6463,-1.646,-1.6489,-1.6489,-1.6489,0,-1.6136,-1.6167,-1.6204,-1.6221,-1.6239,-1.6277,-1.6288,-1.631,-1.6352,-1.6363,-1.6374,-1.6421,-1.6447,-1.6466,-1.6463,-1.6475,-1.6478,-1.6485,-1.6469,-1.6467,-1.6465,-1.646,-1.6457,-1.6487,-1.6487,-1.6488,-1.6488,0,-1.6133,-1.6153,-1.6158,-1.6199,-1.6217,-1.6231,-1.6269,-1.6283,-1.6305,-1.633,-1.635,-1.6382,-1.6411,-1.6418,-1.6439,-1.644,-1.6445,-1.6462,-1.648,-1.6459,-1.6454,-1.6453,-1.6484,-1.6485,-1.6485,-1.6486,0,0,-1.6086,-1.6146,-1.6147,-1.6165,-1.6209,-1.6225,-1.624,-1.6269,-1.6279,-1.6307,-1.6319,-1.635,-1.6366,-1.6384,-1.6408,-1.6413,-1.6398,-1.6429,-1.6431,-1.6421,-1.6399,-1.6385,-1.6382,-1.6413,-1.6412,-1.6412,-1.6396,0,-1.6071,-1.6101,-1.6134,-1.6152,-1.617,-1.6206,-1.6219,-1.6246,-1.6269,-1.6287,-1.6313,-1.6334,-1.6354,-1.6365,-1.6371,-1.6398,-1.6394,-1.64,-1.6423,-1.6423,-1.6412,-1.638,-1.6365,-1.6348,-1.6394,-1.6394,-1.6394,0,-1.6058,-1.6084,-1.6103,-1.6144,-1.6153,-1.6164,-1.6192,-1.621,-1.6241,-1.6257,-1.6277,-1.6303,-1.6319,-1.6335,-1.6357,-1.636,-1.6371,-1.6386,-1.6386,-1.6389,-1.6406,-1.638,-1.6344,-1.634,-1.6391,-1.6392,-1.6392,0,-1.6019,-1.6059,-1.6076,-1.609,-1.6138,-1.6145,-1.6165,-1.6196,-1.6211,-1.6236,-1.6246,-1.6272,-1.6286,-1.6305,-1.6336,-1.6345,-1.6353,-1.6373,-1.6366,-1.6365,-1.6365,-1.6365,-1.6329,-1.6374,-1.6374,-1.6375,-1.6375,0,-1.5998,-1.6008,-1.6059,-1.6069,-1.6081,-1.6118,-1.6129,-1.6152,-1.6179,-1.6193,-1.6225,-1.6238,-1.6279,-1.6295,-1.632,-1.6333,-1.6339,-1.6352,-1.6358,-1.6348,-1.6346,-1.6355,-1.6357,-1.6374,-1.6374,-1.6374,-1.6374,0,-1.5957,-1.5992,-1.6012,-1.6055,-1.6067,-1.6073,-1.611,-1.612,-1.6145,-1.6162,-1.6168,-1.6208,-1.6229,-1.6262,-1.6293,-1.6309,-1.6317,-1.6328,-1.6307,-1.631,-1.6301,-1.6301,-1.6269,-1.6266,-1.6314,-1.6313,-1.6313,0,-1.5941,-1.595,-1.5994,-1.6006,-1.6025,-1.6044,-1.606,-1.6096,-1.6111,-1.6146,-1.6151,-1.6175,-1.6196,-1.6227,-1.6257,-1.6281,-1.6292,-1.6279,-1.6295,-1.6285,-1.629,-1.6288,-1.6288,-1.6275,-1.6274,-1.6273,-1.6273,0,-1.5908,-1.5925,-1.5946,-1.5973,-1.5991,-1.6013,-1.6038,-1.6045,-1.6087,-1.6101,-1.6123,-1.6139,-1.6171,-1.6193,-1.622,-1.624,-1.6262,-1.6268,-1.6267,-1.6256,-1.6243,-1.6248,-1.6295,-1.6268,-1.6268,-1.6269,-1.6269,-1.6269,-1.5879,-1.5887,-1.5919,-1.5942,-1.5964,-1.5985,-1.5997,-1.6023,-1.6042,-1.6071,-1.6091,-1.6112,-1.6141,-1.618,-1.6198,-1.6213,-1.6223,-1.6223,-1.6222,-1.6221,-1.6217,-1.6241,-1.6218,-1.6219,-1.6219,-1.6219,-1.6219,0,-1.5846,-1.5868,-1.5889,-1.5921,-1.5938,-1.5959,-1.5987,-1.5999,-1.6017,-1.6042,-1.6062,-1.6086,-1.6108,-1.614,-1.6163,-1.617,-1.618,-1.6174,-1.6174,-1.6177,-1.6207,-1.6205,-1.6165,-1.6165,-1.6165,-1.6165,-1.6165,-1.6165,-1.5831,-1.5846,-1.5866,-1.5892,-1.5914,-1.5934,-1.5948,-1.5967,-1.5988,-1.6014,-1.6032,-1.6053,-1.608,-1.6106,-1.6126,-1.6135,-1.6141,-1.6132,-1.6143,-1.617,-1.6175,-1.618,-1.6178,-1.6133,-1.6133,-1.6112,-1.6112,-1.6112]}]]